DW2270 Weather Reports


time (UTC)temp
C
wind
direction
speed
KPH
gust
KPH
rain 1hr
cm
rain 24hr
cm
rain mn
cm
humidity
%
barometer
mb
20260505205829 29 91 1.6 12.9 0.00 0.00 0.00 62 1006.7
20260505204759 29 55 3.2 12.9 0.00 0.00 0.00 63 1006.7
20260505203807 30 134 1.6 12.9 0.00 0.00 0.00 62 1007.0
20260505202756 29 151 1.6 12.9 0.00 0.00 0.00 60 1007.0
20260505200658 29 71 1.6 17.7 0.00 0.00 0.00 62 1007.2
20260505194535 29 147 1.6 12.9 0.00 0.00 0.00 59 1007.5
20260505192328 28 78 1.6 11.3 0.00 0.00 0.00 54 1007.7
20260505191314 28 92 1.6 11.3 0.00 0.00 0.00 53 1007.8
20260505190339 28 73 0.0 11.3 0.00 0.00 0.00 49 1007.9
20260505185320 27 98 1.6 11.3 0.00 0.00 0.00 51 1008.1
20260505184343 27 165 0.0 4.8 0.00 0.00 0.00 41 1008.0
20260505182244 27 160 0.0 6.4 0.00 0.00 0.00 36 1008.3
20260505181239 27 80 0.0 8.0 0.00 0.00 0.00 35 1008.3
20260505180238 26 309 0.0 14.5 0.00 0.00 0.00 32 1008.4
20260505175236 26 248 1.6 14.5 0.00 0.00 0.00 30 1008.4
20260505174224 26 92 0.0 6.4 0.00 0.00 0.00 29 1008.5
20260505173215 26 92 1.6 6.4 0.00 0.00 0.00 29 1008.7
20260505172146 26 117 1.6 6.4 0.00 0.00 0.00 31 1008.8
20260505171156 26 236 1.6 4.8 0.00 0.00 0.00 27 1008.8
20260505170152 26 227 0.0 9.7 0.00 0.00 0.00 23 1008.8
20260505165205 26 84 0.0 4.8 0.00 0.00 0.00 24 1008.7
20260505163044 25 86 0.0 9.7 0.00 0.00 0.00 17 1008.9
20260505160943 25 253 0.0 6.4 0.00 0.00 0.00 18 1008.8
20260505151657 25 163 1.6 12.9 0.00 0.00 0.00 22 1008.6
20260505150716 25 127 1.6 9.7 0.00 0.00 0.00 20 1008.5
20260505140549 23 92 1.6 12.9 0.00 0.00 0.00 6 1008.3
20260505124446 22 153 0.0 11.3 0.00 0.00 0.00 1 1007.9
20260505123448 22 105 1.6 11.3 0.00 0.00 0.00 1 1007.6
20260505122437 22 67 0.0 9.7 0.00 0.00 0.00 1 1008.0
20260505121421 22 82 0.0 4.8 0.00 0.00 0.00 1 1008.1
20260505120409 22 87 0.0 0.0 0.00 0.00 0.00 1 1008.0
20260505115418 22 84 0.0 4.8 0.00 0.00 0.00 2 1007.9
20260505114428 22 119 1.6 9.7 0.00 0.00 0.00 3 1007.4
20260505113424 22 117 0.0 9.7 0.00 0.00 0.00 3 1007.8
20260505112351 22 95 0.0 3.2 0.00 0.00 0.00 4 1007.8
20260505111329 22 306 0.0 6.4 0.00 0.00 0.00 4 1007.8
20260505110305 22 94 0.0 9.7 0.00 0.00 0.00 5 1007.7
20260505100057 22 163 0.0 3.2 0.00 0.00 0.00 8 1007.9
20260505095056 22 109 0.0 4.8 0.00 0.00 0.00 9 1008.0
20260505094040 22 104 0.0 3.2 0.00 0.00 0.00 10 1007.9
20260505093103 22 105 0.0 1.6 0.00 0.00 0.00 11 1007.9
20260505092048 22 82 0.0 4.8 0.00 0.00 0.00 12 1008.1
20260505091107 22 97 0.0 1.6 0.00 0.00 0.00 13 1008.2
20260505090124 22 97 0.0 1.6 0.00 0.00 0.00 15 1008.3
20260505085121 22 88 0.0 8.0 0.00 0.00 0.00 15 1008.1
20260505084125 22 103 0.0 9.7 0.00 0.00 0.00 16 1008.2
20260505083141 22 107 0.0 8.0 0.00 0.00 0.00 17 1008.2
20260505082142 22 315 0.0 4.8 0.00 0.00 0.00 18 1008.4
20260505081116 22 64 0.0 1.6 0.00 0.00 0.00 19 1008.4
20260505080048 22 64 0.0 3.2 0.00 0.00 0.00 21 1008.6
20260505075029 22 74 0.0 9.7 0.00 0.00 0.00 22 1008.6
20260505074036 22 101 0.0 8.0 0.00 0.00 0.00 23 1008.6
20260505073020 22 78 0.0 4.8 0.00 0.00 0.00 24 1008.8
20260505071948 22 258 0.0 1.6 0.00 0.00 0.00 26 1008.9
20260505070924 22 257 0.0 1.6 0.00 0.00 0.00 27 1009.0
20260505065938 22 109 0.0 1.6 0.00 0.00 0.00 28 1009.0
20260505064947 22 96 0.0 8.0 0.00 0.00 0.00 29 1009.1
20260505063933 22 81 0.0 16.1 0.00 0.00 0.00 31 1009.2
20260505062902 22 96 0.0 16.1 0.00 0.00 0.00 33 1009.3
20260505061843 22 111 0.0 9.7 0.00 0.00 0.00 35 1009.4
20260505055720 22 79 0.0 6.4 0.00 0.00 0.00 40 1009.5
20260505054646 22 217 0.0 3.2 0.00 0.00 0.00 42 1009.3
20260505053645 22 125 0.0 4.8 0.00 0.00 0.00 43 1009.6
20260505052619 22 101 0.0 9.7 0.00 0.00 0.00 45 1009.7
20260505051604 22 92 0.0 9.7 0.00 0.00 0.00 48 1009.9
20260505040120 23 154 1.6 12.9 0.00 0.00 0.00 56 1009.9
20260505035140 23 43 1.6 12.9 0.00 0.00 0.00 57 1010.1
20260505034154 23 11 0.0 14.5 0.00 0.00 0.00 57 1010.0
20260505030829 23 105 1.6 9.7 0.00 0.00 0.00 60 1010.2
20260505024651 23 90 1.6 12.9 0.00 0.00 0.00 62 1009.9
20260505023711 23 117 1.6 12.9 0.00 0.00 0.00 63 1009.8
20260505022643 23 103 1.6 12.9 0.00 0.00 0.00 63 1009.9
20260505021702 23 97 0.0 8.0 0.00 0.00 0.00 63 1009.9
20260505015519 23 123 0.0 11.3 0.00 0.00 0.00 63 1009.6
20260505014527 24 105 0.0 9.7 0.00 0.00 0.00 64 1009.5
20260505013510 24 227 0.0 9.7 0.00 0.00 0.00 64 1009.4
20260505012528 24 151 0.0 8.0 0.00 0.00 0.00 65 1009.3
20260505011528 25 101 0.0 4.8 0.00 0.00 0.00 65 1009.3
20260505010533 25 84 0.0 1.6 0.00 0.00 0.00 64 1009.4
20260505005534 25 84 0.0 8.0 0.00 0.00 0.00 64 1009.4
20260505004547 25 98 1.6 4.8 0.00 0.00 0.00 64 1009.4
20260505003522 25 100 0.0 4.8 0.00 0.00 0.00 64 1009.4
20260505002500 25 112 1.6 16.1 0.00 0.00 0.00 64 1009.4
20260505001503 26 113 1.6 16.1 0.00 0.00 0.00 63 1009.4
20260504235315 26 94 1.6 9.7 0.00 0.00 0.00 63 1009.4
20260504234259 26 121 0.0 11.3 0.00 0.00 0.00 63 1009.6
20260504233308 26 95 1.6 11.3 0.00 0.00 0.00 62 1009.5
20260504230020 27 76 1.6 17.7 0.00 0.00 0.00 59 1009.9
20260504224951 27 104 3.2 17.7 0.00 0.00 0.00 58 1009.8
20260504223934 27 119 1.6 14.5 0.00 0.00 0.00 59 1009.9
20260504222931 27 169 1.6 11.3 0.00 0.00 0.00 58 1010.1
20260504220804 27 239 0.0 8.0 0.00 0.00 0.00 57 1010.4
20260504214605 28 132 1.6 4.8 0.00 0.00 0.00 55 1010.3
20260504213613 28 155 1.6 9.7 0.00 0.00 0.00 54 1010.5
20260504212609 28 333 1.6 14.5 0.00 0.00 0.00 54 1010.6